[Iaude] MPEC E112: 2024 EM2 [a=2.11,e=0.56,i=10.3,H=27.0]

mpec at cfa.harvard.edu mpec at cfa.harvard.edu
Thu Mar 7 17:08:04 EST 2024


M.P.E.C. 2024-E112                                Issued 2024 March 7, 22:06 UT

     The Minor Planet Electronic Circulars contain information on unusual
         minor planets, routine data on comets and natural satellites,
         and occasional editorial announcements.  They are published
    on behalf of Division F of the International Astronomical Union by the
          Minor Planet Center, Smithsonian Astrophysical Observatory,
                          Cambridge, MA 02138, U.S.A.
			  
             Prepared using the Tamkin Foundation Computer Network

                              MPC at CFA.HARVARD.EDU
            URL https://www.minorplanetcenter.net/    ISSN 1523-6714

                                    2024 EM2                                    


Observations:
     K24E02M 1C2024 03 05.32917 10 17 18.46 +03 15 28.6          17.8 GVEE112703
     K24E02M 1C2024 03 05.33143 10 17 31.14 +03 17 09.5          17.8 GVEE112703
     K24E02M 1C2024 03 05.33368 10 17 43.89 +03 18 50.7          17.7 GVEE112703
     K24E02M 1C2024 03 05.33594 10 17 56.56 +03 20 31.2          17.7 GVEE112703
     K24E02M*1C2024 03 07.40496312 13 43.871+16 35 37.00         19.34GVEE112G96
     K24E02M 1C2024 03 07.41064312 13 53.094+16 36 33.62         19.50GVEE112G96
     K24E02M 1C2024 03 07.41637112 14 02.324+16 37 29.93         19.11GVEE112G96
     K24E02M 1C2024 03 07.42205812 14 11.519+16 38 25.69         19.30GVEE112G96
     K24E02M mC2024 03 07.45726612 15 07.999+16 44 04.06         19.21GVEE112I52
     K24E02M mC2024 03 07.45743512 15 08.251+16 44 05.93         19.35GVEE112I52
     K24E02M mC2024 03 07.45760512 15 08.528+16 44 07.66         19.38GVEE112I52
     K24E02M mC2024 03 07.45777512 15 08.809+16 44 08.84         20.24GVEE112I52
     K24E02M mC2024 03 07.50757812 16 28.081+16 51 49.61         19.84GVEE112I52
     K24E02M mC2024 03 07.50774812 16 28.402+16 51 50.40         19.35GVEE112I52
     K24E02M mC2024 03 07.50791812 16 28.646+16 51 51.80         19.26GVEE112I52
     K24E02M mC2024 03 07.50808812 16 28.931+16 51 53.10         19.46GVEE112I52
     K24E02M 1C2024 03 07.87128 12 26 15.63 +17 41 54.4          20.1 VXEE112033
     K24E02M 1C2024 03 07.87163 12 26 16.12 +17 41 57.0          20.2 VXEE112033
     K24E02M 1C2024 03 07.87199 12 26 16.61 +17 42 00.2          20.4 VXEE112033

Observer details:
033 Karl Schwarzschild Observatory, Tautenburg.  Observers S. Melnikov, C.
    Hogner, F. Ludwig, M. Hartmann, B. Stecklum.  Measurer B. Stecklum.
    1.34-m f/3 Schmidt + CCD.
703 Catalina Sky Survey.  Observer K. W. Wierzchos.  Measurers B. Gray, D.
    Rankin, F. C. Shelly.  0.68-m Schmidt + 10K CCD.
G96 Mt. Lemmon Survey.  Observer J. B. Fazekas.  Measurers T. Beuden, V. F.
    Carvajal, D. Fay, J. B. Fazekas, D. C. Fuls, A. R. Gibbs, A. D. Grauer, H.
    Groeller, J. K. Hogan, R. A. Kowalski, S. M. Larson, G. J. Leonard, D.
    Rankin, R. L. Seaman, F. C. Shelly, K. W. Wierzchos.  1.5-m reflector +
    10K CCD.
I52 Steward Observatory, Mt. Lemmon Station.  Observers V. F. Carvajal, G. J.
    Leonard.  Measurers T. Beuden, V. F. Carvajal, D. Fay, J. B. Fazekas, D.
    C. Fuls, A. R. Gibbs, A. D. Grauer, H. Groeller, J. K. Hogan, R. A.
    Kowalski, S. M. Larson, G. J. Leonard, D. Rankin, R. L. Seaman, F. C.
    Shelly, K. W. Wierzchos.  1.0-m prime focus + CCD.

Orbital elements:
2024 EM2                                                 Earth MOID = 0.0085 AU
Epoch 2024 Mar. 31.0 TT = JDT 2460400.5                 MPC                     
M  17.34218              (2000.0)            P               Q                  
n   0.32258782     Peri.  323.08040     -0.62216195     -0.78155354             
a   2.1055751      Node   165.21267     +0.75425924     -0.61402991             
e   0.5569104      Incl.   10.31480     +0.20977967     -0.11018771             
P   3.06           H   27.00          G   0.15           U   8                  
Residuals in seconds of arc
240305 703  0.8+  0.5+    240307 G96  0.2+  0.0     240307 I52  0.3-  0.1-
240305 703  0.5-  0.1-    240307 I52  0.1+  0.1-    240307 I52  0.1-  0.4-
240305 703  0.3+  0.1+    240307 I52  0.2-  0.1+    240307 033  0.3-  0.2+
240305 703  0.7-  0.6-    240307 I52  0.1-  0.3+    240307 033  0.0   0.0
240307 G96  0.2-  0.1-    240307 I52  0.0   0.2-    240307 033  0.1+  0.3+
240307 G96  0.2+  0.2+    240307 I52 (0.7-  0.7+)
240307 G96  0.1-  0.0     240307 I52  0.0   0.0

Ephemeris:
2024 EM2                 a,e,i = 2.11, 0.56, 10                  q = 0.9330
Date    TT    R. A. (2000) Decl.     Delta      r    Elong.  Phase     V
2024 02 06    02 02 55.9 -24 54 15   0.1766  0.9322    67.3   102.6    26.8
...
2024 02 21    02 29 00.8 -25 35 10   0.08143 0.9529    61.7   114.0    25.9
...
2024 02 29    03 24 22.6 -26 55 02   0.03035 0.9799    68.6   109.8    23.5
...
2024 03 06    11 11 37.4 +09 59 09   0.01441 1.0065   175.5     4.4    18.2
2024 03 07    12 00 37.0 +15 19 40   0.01973 1.0114   164.1    15.6    19.4
2024 03 08    12 28 56.8 +18 01 16   0.02564 1.0164   157.5    21.9    20.1
...
2024 03 14    13 22 59.4 +22 10 26   0.06412 1.0489   147.5    30.6    22.5
...
2024 03 22    13 36 41.2 +22 45 32   0.1178  1.0979   147.8    28.9    23.8
...
2024 04 06    13 38 44.2 +21 37 52   0.2260  1.2024   150.4    24.3    25.3

A. U. Tomatic                (C) Copyright 2024 MPC           M.P.E.C. 2024-E112





More information about the Iaude mailing list